Date String (YYYY-MM-DD hh:mm:ss) UTC,Instrument flags,Ambient pressure (hPa),Sample flow (lpm),Bypass flow (lpm),Sample temperature (°C),Ambient temperature (°C),ASC tube jacket temperature (°C),LED temperature (°C),Box temperature (°C),Sample RH (%),Span deviation,Mass concentration (μg/m³),Mass concentration (μg/m³),Mass concentration (μg/m³)
DateTimeUTC,F1_M11,P_M11,Q1_M11,Q2_M11,T1_M11,T2_M11,T3_M11,T4_M11,T5_M11,U1_M11,ZSPAN_M11,X2_M11,X0_M11,X1_M11
2023-02-17 00:00:00,,0827.5,4.98,0.00,22.2,20.7,00.0,31.1,24.0,06.0,0000.0,0003.42,0006.55,0002.73
2023-02-17 00:01:00,,0827.5,5.01,0.00,22.2,20.7,00.0,31.1,24.0,06.1,0000.0,0003.37,0006.33,0002.74
2023-02-17 00:02:00,,0827.6,5.01,0.00,22.2,20.7,00.0,31.1,24.0,06.1,0000.0,0003.39,0006.38,0002.75
2023-02-17 00:03:00,,0827.6,5.00,0.00,22.2,20.7,00.0,31.1,24.0,06.1,0000.0,0003.40,0006.36,0002.77
2023-02-17 00:04:00,,0827.6,4.99,0.00,22.2,20.7,00.0,31.1,24.0,06.1,0000.0,0003.40,0006.25,0002.77
2023-02-17 00:05:00,,0827.5,5.01,0.00,22.2,20.8,00.0,31.1,24.0,06.1,0000.0,0003.41,0007.47,0002.78
2023-02-17 00:06:00,,0827.5,5.00,0.00,22.2,20.7,00.0,31.1,24.0,06.2,0000.0,0003.39,0007.52,0002.77
2023-02-17 00:07:00,,0827.5,5.01,0.00,22.2,20.8,00.0,31.1,24.0,06.1,0000.0,0003.39,0007.48,0002.76
2023-02-17 00:08:00,,0827.5,4.98,0.00,22.2,20.8,00.0,31.1,24.0,06.1,0000.0,0003.37,0007.64,0002.73
2023-02-17 00:09:00,,0827.5,4.97,0.00,22.2,20.8,00.0,31.1,24.0,06.1,0000.0,0003.35,0007.75,0002.69
2023-02-17 00:10:00,,0827.5,5.00,0.00,22.2,20.8,00.0,31.1,24.0,06.1,0000.0,0003.33,0008.09,0002.64
2023-02-17 00:11:00,,0827.5,5.02,0.00,22.2,20.8,00.0,31.1,24.0,06.1,0000.0,0003.32,0008.85,0002.60
2023-02-17 00:12:00,,0827.6,5.02,0.00,22.2,20.8,00.0,31.1,24.0,06.1,0000.0,0003.34,0008.99,0002.58
2023-02-17 00:13:00,,0827.6,5.00,0.00,22.2,20.8,00.0,31.1,24.0,06.1,0000.0,0003.33,0009.01,0002.57
2023-02-17 00:14:00,,0827.6,5.00,0.00,22.2,20.8,00.0,31.1,24.0,06.1,0000.0,0003.30,0008.95,0002.55
2023-02-17 00:15:00,,0827.6,4.99,0.00,22.2,20.8,00.0,31.1,24.0,06.0,0000.0,0003.28,0008.94,0002.53
2023-02-17 00:16:00,,0827.7,5.01,0.00,22.2,20.8,00.0,31.1,24.0,06.0,0000.0,0003.25,0008.48,0002.50
2023-02-17 00:17:00,,0827.7,4.99,0.00,22.2,20.8,00.0,31.1,24.0,06.0,0000.0,0003.25,0008.50,0002.49
2023-02-17 00:18:00,,0827.7,5.01,0.00,22.2,20.8,00.0,31.1,24.0,06.0,0000.0,0003.27,0009.31,0002.49
2023-02-17 00:19:00,,0827.7,5.01,0.00,22.2,20.7,00.0,31.1,24.0,06.0,0000.0,0003.27,0009.56,0002.49
2023-02-17 00:20:00,,0827.7,4.99,0.00,22.2,20.8,00.0,31.1,24.0,06.1,0000.0,0003.29,0009.33,0002.51
2023-02-17 00:21:00,,0827.7,5.01,0.00,22.2,20.8,00.0,31.1,24.0,06.1,0000.0,0003.28,0008.86,0002.53
2023-02-17 00:22:00,,0827.8,4.99,0.00,22.2,20.8,00.0,31.1,24.0,06.1,0000.0,0003.32,0008.85,0002.54
2023-02-17 00:23:00,,0827.7,5.00,0.00,22.2,20.8,00.0,31.1,24.1,06.1,0000.0,0003.30,0008.45,0002.51
2023-02-17 00:24:00,,0827.7,5.00,0.00,22.3,21.3,00.0,31.0,24.2,06.1,0000.0,0003.26,0008.73,0002.48
2023-02-17 00:25:00,,0827.7,5.03,0.00,22.4,22.3,00.0,31.0,24.4,06.0,0000.0,0003.26,0009.03,0002.47
2023-02-17 00:26:00,,0827.8,5.01,0.00,22.5,23.1,00.0,31.0,24.6,06.0,0000.0,0003.29,0009.18,0002.44
2023-02-17 00:27:00,,0827.8,5.05,0.00,22.6,22.9,00.0,31.1,24.6,06.0,0000.0,0003.33,0009.49,0002.43
2023-02-17 00:28:00,,0827.8,5.03,0.00,22.6,22.6,00.0,31.2,24.6,06.0,0000.0,0003.35,0009.41,0002.42
2023-02-17 00:29:00,,0827.8,4.99,0.00,22.6,22.3,00.0,31.2,24.6,05.9,0000.0,0003.32,0008.86,0002.41
2023-02-17 00:30:00,,0827.7,4.98,0.00,22.6,22.0,00.0,31.3,24.5,05.9,0000.0,0003.33,0008.34,0002.42
2023-02-17 00:31:00,,0827.7,5.00,0.00,22.6,21.8,00.0,31.3,24.5,05.9,0000.0,0003.32,0008.71,0002.42
2023-02-17 00:32:00,,0827.7,5.00,0.00,22.6,21.6,00.0,31.3,24.5,05.9,0000.0,0003.37,0008.95,0002.42
2023-02-17 00:33:00,,0827.7,4.98,0.00,22.6,21.5,00.0,31.3,24.5,05.9,0000.0,0003.32,0008.47,0002.40
2023-02-17 00:34:00,,0827.7,5.00,0.00,22.6,21.4,00.0,31.4,24.5,05.9,0000.0,0003.30,0008.35,0002.42
2023-02-17 00:35:00,,0827.6,5.01,0.00,22.6,21.3,00.0,31.4,24.4,05.9,0000.0,0003.35,0008.13,0002.43
2023-02-17 00:36:00,,0827.7,5.00,0.00,22.6,21.2,00.0,31.4,24.4,05.9,0000.0,0003.36,0007.95,0002.43
2023-02-17 00:37:00,,0827.7,4.99,0.00,22.6,21.1,00.0,31.4,24.4,05.9,0000.0,0003.34,0008.04,0002.44
2023-02-17 00:38:00,,0827.8,5.01,0.00,22.6,21.0,00.0,31.4,24.4,05.9,0000.0,0003.33,0007.83,0002.43
2023-02-17 00:39:00,,0827.8,5.02,0.00,22.6,21.0,00.0,31.4,24.3,06.0,0000.0,0003.33,0007.66,0002.43
2023-02-17 00:40:00,,0827.8,5.01,0.00,22.6,20.9,00.0,31.4,24.3,06.0,0000.0,0003.34,0007.65,0002.42
2023-02-17 00:41:00,,0827.8,4.99,0.00,22.6,20.9,00.0,31.4,24.3,06.0,0000.0,0003.35,0007.75,0002.41
2023-02-17 00:42:00,,0827.8,4.99,0.00,22.5,20.9,00.0,31.4,24.3,06.0,0000.0,0003.35,0007.64,0002.39
2023-02-17 00:43:00,,0827.8,5.02,0.00,22.5,20.8,00.0,31.4,24.3,06.0,0000.0,0003.31,0007.57,0002.37
2023-02-17 00:44:00,,0827.7,5.00,0.00,22.5,20.7,00.0,31.4,24.2,06.0,0000.0,0003.33,0007.60,0002.37
2023-02-17 00:45:00,,0827.8,5.00,0.00,22.5,20.7,00.0,31.3,24.2,06.0,0000.0,0003.37,0007.78,0002.36
2023-02-17 00:46:00,,0827.8,5.01,0.00,22.5,20.6,00.0,31.3,24.2,06.0,0000.0,0003.37,0007.91,0002.35
2023-02-17 00:47:00,,0827.8,5.00,0.00,22.4,20.6,00.0,31.3,24.2,06.0,0000.0,0003.36,0008.08,0002.34
2023-02-17 00:48:00,,0827.9,5.01,0.00,22.4,20.6,00.0,31.3,24.1,06.0,0000.0,0003.34,0008.36,0002.35
2023-02-17 00:49:00,,0827.9,4.99,0.00,22.4,20.5,00.0,31.3,24.1,06.0,0000.0,0003.33,0008.36,0002.34
2023-02-17 00:50:00,,0827.9,5.00,0.00,22.4,20.5,00.0,31.3,24.1,06.1,0000.0,0003.32,0008.34,0002.35
2023-02-17 00:51:00,,0827.9,5.01,0.00,22.3,20.4,00.0,31.3,24.0,06.1,0000.0,0003.35,0008.78,0002.35
2023-02-17 00:52:00,,0827.9,5.01,0.00,22.3,20.4,00.0,31.3,24.0,06.1,0000.0,0003.36,0009.29,0002.35
2023-02-17 00:53:00,,0827.9,5.02,0.00,22.3,20.4,00.0,31.2,24.0,06.1,0000.0,0003.38,0009.39,0002.34
2023-02-17 00:54:00,,0827.9,5.01,0.00,22.3,20.4,00.0,31.2,24.0,06.1,0000.0,0003.39,0009.76,0002.33
2023-02-17 00:55:00,,0827.9,4.99,0.00,22.3,20.3,00.0,31.2,24.0,06.1,0000.0,0003.40,0009.77,0002.33
2023-02-17 00:56:00,,0827.9,5.00,0.00,22.2,20.3,00.0,31.2,24.0,06.1,0000.0,0003.41,0009.79,0002.32
2023-02-17 00:57:00,,0827.9,5.01,0.00,22.2,20.6,00.0,31.1,24.0,06.1,0000.0,0003.38,0009.53,0002.32
2023-02-17 00:58:00,,0827.9,4.97,0.00,22.3,21.5,00.0,31.1,24.2,06.1,0000.0,0003.38,0009.31,0002.31
2023-02-17 00:59:00,,0827.9,4.95,0.00,22.4,22.4,00.0,31.1,24.4,06.1,0000.0,0003.38,0008.79,0002.30
